Home   Weather   Saint-Jérôme   Past weeks

Flag for Canada Past Weather in Saint-Jérôme, Quebec, Canada — Yesterday and Last 2 Weeks

Now
30 °F

Light mixture of precip. More clouds than sun.


Feels Like: 22 °F
Forecast: 26 / 33 °F
Wind: 9 mph from Southwest

Location: Montreal / Mirabel

Current Time: Dec 8, 2016 at 9:35:46 am

Latest Report: Dec 8, 2016 at 9:00 am


Visibility: 15 mi

Pressure: 29.78 "Hg

Humidity: 80%

Dew Point: 25 °F

Location of Saint-JérômeLocation

Past Weather in Saint-Jérôme — Graph

°F

Saint-Jérôme Temperature Yesterday

Maximum temperature yesterday: 34 °F (at 8:00 pm)
Minimum temperature yesterday: 27 °F (at 12:00 am)
Average temperature yesterday: 29 °F

High & Low Weather Summary for the Past Weeks

 TemperatureHumidityPressure
High45 °F (Dec 1, 10:00 am)100% (Nov 24, 7:00 pm)30.36 "Hg (Nov 24, 7:00 pm)
Low19 °F (Dec 6, 1:00 am)51% (Dec 4, 2:00 pm)29.37 "Hg (Dec 1, 5:00 am)
Average31 °F89%30.00 "Hg
* Reported Nov 23 8:00 am — Dec 8 8:00 am, Saint-Jérôme, Weather by CustomWeather, © 2016

Note: Actual official high and low records may vary slightly from our data, if they occured in-between our weather recording intervals... More about our weather records

Advertising

Saint-Jérôme Weather History for the Previous 24 Hours

Scroll right to see more
 ConditionsComfort  
Time TempWeatherWind HumidityBarometerVisibility
8:00 am
Thu, Dec 8
30 °FPartly sunny.9 mph80%29.78 "Hg30 mi
7:00 am28 °FPassing clouds.6 mph86%29.79 "Hg25 mi
6:00 am28 °FPassing clouds.3 mph86%29.80 "Hg25 mi
5:00 am25 °FPassing clouds.No wind93%29.82 "Hg25 mi
4:00 am30 °FPartly cloudy.5 mph75%29.84 "Hg25 mi
3:00 am30 °FMostly cloudy.6 mph75%29.86 "Hg25 mi
2:00 am30 °FMostly cloudy.5 mph75%29.87 "Hg25 mi
1:00 am32 °FOvercast.2 mph75%29.88 "Hg25 mi
12:00 am32 °FOvercast.7 mph75%29.89 "Hg25 mi
11:00 pm
Wed, Dec 7
34 °FOvercast.10 mph70%29.91 "Hg25 mi
10:00 pm34 °FMostly cloudy.7 mph75%29.92 "Hg25 mi
9:00 pm34 °FMostly cloudy.7 mph81%29.91 "Hg25 mi
8:00 pm34 °FOvercast.8 mph87%29.90 "Hg25 mi
7:00 pm30 °FFog.3 mph100%29.90 "Hg25 mi
6:00 pm32 °FLow clouds.3 mph100%29.90 "Hg15 mi
5:00 pm32 °FIce fog.5 mph100%29.91 "Hg2 mi
4:00 pm32 °FIce fog.3 mph100%29.89 "Hg6 mi
3:00 pm32 °FIce fog.3 mph93%29.86 "Hg6 mi
2:00 pm30 °FIce fog.3 mph100%29.85 "Hg2 mi
1:00 pm28 °FIce fog.No wind100%29.85 "Hg3 mi
12:00 pm27 °FLight freezing rain. Ice fog.5 mph100%29.84 "Hg2 mi
11:50 am27 °FLight freezing rain. Ice fog.5 mph100%29.84 "Hg2 mi
11:00 am27 °FLight snow. Ice fog.5 mph100%29.85 "Hg3 mi
10:00 am27 °FLight snow. Mostly cloudy.5 mph93%29.86 "Hg2 mi
9:00 am27 °FLight mixture of precip. Ice fog.8 mph93%29.88 "Hg3 mi
Weather by CustomWeather, © 2016

See weather overviewHow to use our weather pages